Location: Tafessasset
(32.5899°N, 5.4824°W)
Time: 13:48:12
(UTC+00:00)

Cosmos 407 Rocket - Pass Details

Date: 18 February 2020
Orbit: 745 x 785 km, 74.0° (Epoch: 29 March)

Event Time Altitude Azimuth Distance (km) Brightness Sun altitude
Rises 05:44:26 0° 209° (SSW) 3,260 6.5 -17.1°
Reaches altitude 10° 05:46:53 10° 215° (SW) 2,333 5.7 -16.6°
Maximum altitude 05:52:01 49° 289° (WNW) 1,001 3.7 -15.5°
Drops below altitude 10° 05:57:09 10° 5° (N) 2,330 6.0 -14.4°
Sets 05:59:37 0° 10° (N) 3,255 6.8 -13.9°
